CZ-6A DEB, 56256

Orbit data source: Space-Track

CZ-6A DEB, 56256 is space debris in SSO originally from a launch on Fri, 11 Nov 2022 UTC launched from the Taiyaun Space Center, China (TSC). Debris objects in space refer to the collection of defunct objects orbiting the Earth. Examples of debris include non-operational satellites, rocket bodies, and fragments generated from explosions, collisions, or faulty payload assembly.

Loading next visibility...
Identifier
56256, 2022-151ABY
Orbit
SSO
Country
Flag of CNCN / PRC
Related business
Manufacturer
SAST
Mission
Spacecraft
Bus & Motor
Unknown
Mass
Unknown
Launch date (UTC)
2022-11-11 (4 years ago)
Launch vehicle
Unknown
Launch site
Taiyaun Space Center, China (TSC)
Object type
Payload
Rocket body
Debris
Shape & HBR
Unknown shape, 0.1 m
Radar Cross Section
Medium (>0.1 m² and <1 m²)

Expand to show TLE details & history
Last TLE update: 17 hours ago

TLE from 17 hours ago
0 CZ-6A DEB
1 56256U 22151ABY 26264.12506001  .00001020  00000-0  20982-3 0  9997
2 56256  98.5647 331.3885 0140795 251.7665 106.8166 14.56963350185930
Epoch: 2026-09-21T03:00Z
TLE epoch observation values (Epoch: 2026-09-21T03:00:05.184Z)
Latitude
-0.00002°
Longitude
-73.64248°
Altitude
736.094 km
Speed
7.471 km/s
True Right ascension
22h 05m 33s
True Declination
0° 00' 00"
Sunlit
Object was in full shadow at epoch
Visualization orbit readout
Latitude
Unknown
Longitude
Unknown
Altitude
Unknown
Speed
Unknown
Apparent Right ascension
Unknown
Apparent Declination
Unknown
Sunlit
N/A
Visualization observer readout
Local Sidereal Time
13:11:42
Azimuth
Unknown
Elevation
Unknown
Doppler factor
Unknown
Orbital elements
Apogee altitude
799.756 km
Perigee altitude
600.44 km
Semi-major axis
7,078.235 km
Eccentricity
0.01408
Inclination
98.5647°
RAAN
331.3885°
Arg. of periapsis
251.7665°
True anomaly
108.35299°
Mean anomaly
106.8166°
Eccentric anomaly
107.5856°
Mean motion
3.64465 °/min
Orbital period
98.77 mins
BSTAR
0.00020982
Loading maneuver chart data...
Computing Atmospheric mass density...
Loading historical data...
Loading historical data...
Loading historical data...
Loading historical data...
Loading historical data...
Loading historical data...
Loading historical data...

Documentation

Showing up to 5 results
|